Sandberg, CA

5:22 PM PDT on August 18, 2017 (GMT -0700)
Sandberg

Weather History for KSDB - June, 2013

Change the Weather History Date:

Saturday, June 8, 2013

  Actual Average Record
Temperature  
Mean Temperature 83 °F 64 °F  
Max Temperature 97 °F 74 °F 98 °F (2014)
Min Temperature 68 °F 54 °F 37 °F (1968)
Degree Days  
Heating Degree Days 0 4  
Month to date heating degree days 0 36  
Since 1 June heating degree days 0 36  
Since 1 July heating degree days 3054 4064  
Cooling Degree Days 18 3  
Month to date cooling degree days 89 23  
Year to date cooling degree days 219 68  
Since 1 June cooling degree days 89 23  
Growing Degree Days 33 (Base 50)    
Moisture  
Dew Point 42 °F    
Average Humidity 36    
Maximum Humidity 58    
Minimum Humidity 14    
Precipitation  
Precipitation 0.00 in 0.01 in 0.00 in (2017)
Month to date precipitation 0.00 0.03  
Year to date precipitation 2.91 8.45  
Since 1 July precipitation 4.28  
Sea Level Pressure  
Sea Level Pressure 29.79 in    
Wind  
Wind Speed 13 mph (SSW)    
Max Wind Speed 26 mph    
Max Gust Speed 33 mph    
Visibility 10 miles    
Events      
T = Trace of Precipitation, MM = Missing Value Source: NWS Daily Summary

Daily Weather History Graph

Daily Weather History Graph

Search for Another Location

Airport or City:

Trip Planner

Search our weather history database for the weather conditions in past years. The results will help you decide how hot, cold, wet, or windy it might be!

Date:

Astronomy

Jun. 08, 2013 Rise Set
Actual Time 5:41 AM PDT 8:07 PM PDT
Civil Twilight 5:11 AM PDT 8:36 PM PDT
Nautical Twilight 4:35 AM PDT 9:12 PM PDT
Astronomical Twilight 3:55 AM PDT 9:52 PM PDT
Moon 5:50 AM PDT (6/8) 8:15 PM PDT (6/8)
Length of Visible Light 15h 24m
Length of Day
14h 25m
New Moon, 0% of the Moon is Illuminated
Jun 8
New Moon
Jun 16
First Quarter
Jun 23
Full
Jun 29
Last Quarter
Jul 8
New

Hourly Weather History & Observations

Time (PDT) Temp. Dew Point Humidity Pressure Visibility Wind Dir Wind Speed Gust Speed Precip Events Conditions
12:48 AM 80.1 °F 42.1 °F 26% 29.76 in 10.0 mi ESE 8.1 mph - N/A   Clear
1:48 AM 78.1 °F 44.1 °F 30% 29.76 in 10.0 mi NNE 4.6 mph - N/A   Clear
2:48 AM 78.1 °F 44.1 °F 30% 29.74 in 10.0 mi NNW 15.0 mph 23.0 mph N/A   Clear
3:48 AM 75.9 °F 46.0 °F 35% 29.73 in 10.0 mi North 20.7 mph - N/A   Clear
4:48 AM - - N/A% - - North - - N/A   Unknown
5:48 AM 79.0 °F 41.0 °F 26% 29.73 in 10.0 mi North 16.1 mph 28.8 mph N/A   Clear
6:48 AM 82.0 °F 41.0 °F 23% 29.75 in 10.0 mi North 10.4 mph 17.3 mph N/A   Clear
7:48 AM 84.9 °F 37.9 °F 19% 29.76 in 10.0 mi North 13.8 mph 20.7 mph N/A   Clear
8:48 AM 89.1 °F 39.0 °F 17% 29.78 in 10.0 mi North 6.9 mph - N/A   Clear
9:48 AM 91.9 °F 44.1 °F 19% 29.78 in 10.0 mi SSW 5.8 mph - N/A   Clear
10:48 AM 91.9 °F 42.1 °F 18% 29.78 in 10.0 mi SSW 10.4 mph 18.4 mph N/A   Clear
11:48 AM 95.0 °F 39.9 °F 15% 29.78 in 10.0 mi Variable 6.9 mph - N/A   Clear
12:48 PM 87.1 °F 48.9 °F 27% 29.80 in 10.0 mi SSW 15.0 mph - N/A   Clear
1:28 PM 91.4 °F 48.2 °F 23% 30.00 in 10.0 mi South 16.1 mph 25.3 mph N/A   Clear
1:48 PM 90.0 °F 48.9 °F 24% 29.79 in 10.0 mi South 16.1 mph 25.3 mph N/A   Clear
2:48 PM 88.0 °F 46.0 °F 23% 29.80 in 10.0 mi South 21.9 mph 31.1 mph N/A   Clear
3:48 PM 90.0 °F 37.9 °F 16% 29.79 in 10.0 mi South 21.9 mph 28.8 mph N/A   Unknown
4:48 PM 89.1 °F 37.0 °F 16% 29.78 in 10.0 mi South 21.9 mph 27.6 mph N/A   Unknown
5:48 PM 87.1 °F 37.9 °F 18% 29.79 in 10.0 mi South 17.3 mph 24.2 mph N/A   Clear
6:48 PM 81.0 °F 45.0 °F 28% 29.80 in 10.0 mi South 12.7 mph - N/A   Clear
7:48 PM 75.9 °F 42.1 °F 30% 29.81 in 10.0 mi SSW 10.4 mph - N/A   Unknown
8:48 PM 71.1 °F 45.0 °F 39% 29.83 in 10.0 mi SW 6.9 mph - N/A   Unknown
9:48 PM 69.1 °F 48.0 °F 47% 29.85 in 10.0 mi SSW 9.2 mph - N/A   Clear
10:48 PM 71.1 °F 37.0 °F 29% 29.84 in 10.0 mi SSW 8.1 mph - N/A   Clear
11:48 PM 71.1 °F 35.1 °F 27% 29.83 in 10.0 mi SSW 8.1 mph - N/A   Clear